Voltar ao catálogo

STARLINK-30142

AtivoComunicaçõesVLEO
NORAD 56836·PAYLOAD·🇺🇸 United States

Lançado Jun 4, 2023 de Cape Canaveral Space Force Station

Loading…

Próximas Passagens (próximas 24 horas)

TLE

AtualizadoSource: CelesTrak SupGP

Época: Sep 15, 2026, 02:43 UTC

1 56836C 23079P   26258.11368056  .00053564  00000+0  19394-2 0  2580
2 56836  42.9988 114.0488 0001537 276.3572 175.9530 15.27563716    18

Acompanhe STARLINK-30142 em tempo real com AllMySat

Download on the App Store